Tracking 28895 objects as of 28-May-2024
HD Live streaming from Space Station
objects crossing your sky now

STARLINK-1878

Track STARLINK-1878 now!
10-day predictions
STARLINK-1878 is classified as:


NORAD ID: 47163
Int'l Code: 2020-088AT
Perigee: 553.5 km
Apogee: 555.1 km
Inclination: 53.1 °
Period: 95.6 minutes
Semi major axis: 6925 km
RCS: Unknown
Launch date: November 25, 2020
Source: United States (US)
Launch site: AIR FORCE EASTERN TEST RANGE (AFETR)
Your satellite tracking list
Your tracking list is empty




NASA's NSSDC Master Catalog

Two Line Element Set (TLE):
1 47163U 20088AT  24148.93901161  .00003123  00000-0  22840-3 0  9996
2 47163  53.0562 352.9509 0001185 102.8741 257.2380 15.06412843193616
Source of the keplerian elements: AFSPC